Bartow, Florida, United States (33830)
Lat: 27.90N, Lon: 81.84W
Wx Zone: FLZ052
Local Info
Past Weather Observations for Tuesday, April 15, 2014

NOTE: This archive is for the closest National Weather Service station to Bartow. Information may differ from the station used for current weather conditions.

Time Weather Temperature Dewpoint Humidity Pressure Winds Precip Visibility
23:55
Clear
64°F / 18°C 59°F / 15°C 83% 29.98 in
(1015 mb)
NW 12.7 mph
(NW 20 kph)
- 10SM
23:35
Partly Cloudy
64°F / 18°C 61°F / 16°C 88% 29.98 in
(1015 mb)
NNW 6.9 mph
(NNW 11 kph)
- 10SM
23:15
Mostly Cloudy
66°F / 19°C 61°F / 16°C 83% 29.98 in
(1015 mb)
NW 10.4 mph
(NW 17 kph)
- 10SM
22:55
Partly Cloudy
66°F / 19°C 61°F / 16°C 83% 29.98 in
(1015 mb)
NW 4.6 mph
(NW 7 kph)
- 10SM
22:35
Mostly Cloudy
66°F / 19°C 61°F / 16°C 83% 29.98 in
(1015 mb)
NW 8.1 mph
(NW 13 kph)
- 10SM
22:15
Overcast
68°F / 20°C 61°F / 16°C 78% 29.98 in
(1015 mb)
NW 8.1 mph
(NW 13 kph)
- 10SM
21:55
Overcast
68°F / 20°C 61°F / 16°C 78% 29.98 in
(1015 mb)
NW 8.1 mph
(NW 13 kph)
- 10SM
21:35
Overcast
68°F / 20°C 63°F / 17°C 83% 29.98 in
(1015 mb)
WNW 6.9 mph
(WNW 11 kph)
- 10SM
21:15
Overcast
68°F / 20°C 64°F / 18°C 88% 29.98 in
(1015 mb)
NW 5.8 mph
(NW 9 kph)
- 10SM
20:55
Overcast
68°F / 20°C 64°F / 18°C 88% 29.95 in
(1014 mb)
WNW 10.4 mph
(WNW 17 kph)
- 10SM
20:35
Overcast
70°F / 21°C 64°F / 18°C 83% 29.95 in
(1014 mb)
WNW 8.1 mph
(WNW 13 kph)
- 10SM
20:15
Overcast
70°F / 21°C 66°F / 19°C 88% 29.95 in
(1014 mb)
NW 8.1 mph
(NW 13 kph)
- 10SM
19:55
Overcast
70°F / 21°C 66°F / 19°C 88% 29.92 in
(1013 mb)
NW 11.5 mph
(NW 19 kph)
- 10SM
19:35
Mostly Cloudy
72°F / 22°C 66°F / 19°C 83% 29.92 in
(1013 mb)
W 12.7 mph
(W 20 kph)
- 10SM
19:15
Partly Cloudy
72°F / 22°C 66°F / 19°C 83% 29.89 in
(1012 mb)
W 16.1 mph
(W 26 kph)
- 10SM
18:55
Partly Cloudy
73°F / 23°C 66°F / 19°C 78% 29.86 in
(1011 mb)
W 12.7 mph
(W 20 kph)
- 10SM
18:35
Partly Cloudy
75°F / 24°C 68°F / 20°C 78% 29.86 in
(1011 mb)
SSW 16.1 mph
(SSW 26 kph)
- 10SM
18:15
Partly Cloudy
75°F / 24°C 70°F / 21°C 83% 29.86 in
(1011 mb)
SSW 19.6 mph
(SSW 32 kph)
- 10SM
17:55
Partly Cloudy
79°F / 26°C 68°F / 20°C 70% 29.83 in
(1010 mb)
SSW 19.6 mph
(SSW 32 kph)
- 10SM
17:35
Partly Cloudy
79°F / 26°C 68°F / 20°C 70% 29.83 in
(1010 mb)
SSW 18.4 mph
(SSW 30 kph)
- 10SM
17:15
Partly Cloudy
79°F / 26°C 68°F / 20°C 70% 29.83 in
(1010 mb)
SW 16.1 mph
(SW 26 kph)
- 10SM
16:55
Clear
81°F / 27°C 70°F / 21°C 70% 29.83 in
(1010 mb)
SW 21.9 mph
(SW 35 kph)
- 10SM
16:35
Clear
79°F / 26°C 70°F / 21°C 74% 29.8 in
(1009 mb)
SW 17.3 mph
(SW 28 kph)
- 10SM
15:48
Mostly Cloudy
81°F / 27°C 72°F / 22°C 74% 29.83 in
(1010 mb)
SSW 18.4 mph
(SSW 30 kph)
- 10SM
14:47
Mostly Cloudy
77°F / 25°C 75°F / 24°C 94% 29.83 in
(1010 mb)
SSW 15 mph
(SSW 24 kph)
- 7SM
14:20
Mostly Cloudy
Drizzle
73°F / 23°C 72°F / 22°C 94% 29.83 in
(1010 mb)
SSW 18.4 mph
(SSW 30 kph)
- 7SM
14:10
Overcast
Thunder Storms
79°F / 26°C 72°F / 22°C 79% 29.86 in
(1011 mb)
SW 28.8 mph
(SW 46 kph)
- 1 1/2SM
13:49
Mostly Cloudy
Thunder Storms
81°F / 27°C 72°F / 22°C 74% 29.83 in
(1010 mb)
SSE 13.8 mph
(SSE 22 kph)
- 7SM
12:47
Mostly Cloudy
82°F / 28°C 68°F / 20°C 62% 29.86 in
(1011 mb)
S 19.6 mph
(S 32 kph)
- 10SM
11:50
Partly Cloudy
84°F / 29°C 70°F / 21°C 62% 29.86 in
(1011 mb)
S 18.4 mph
(S 30 kph)
- 10SM
10:47
Mostly Cloudy
81°F / 27°C 70°F / 21°C 70% 29.92 in
(1013 mb)
SSE 15 mph
(SSE 24 kph)
- 10SM
09:47
Partly Cloudy
81°F / 27°C 70°F / 21°C 70% 29.92 in
(1013 mb)
S 13.8 mph
(S 22 kph)
- 10SM
09:20
Mostly Cloudy
79°F / 26°C 70°F / 21°C 74% 29.92 in
(1013 mb)
S 16.1 mph
(S 26 kph)
- 10SM
08:47
Mostly Cloudy
73°F / 23°C 73°F / 23°C 100% 29.92 in
(1013 mb)
S 15 mph
(S 24 kph)
- 7SM
07:47
Mostly Cloudy
72°F / 22°C 72°F / 22°C 100% 29.92 in
(1013 mb)
S 11.5 mph
(S 19 kph)
- 7SM
06:51
Mostly Cloudy
Fog And Mist
70°F / 21°C N/A N/A 29.92 in
(1013 mb)
S 11.5 mph
(S 19 kph)
- 5SM
06:15
Mostly Cloudy
66°F / 19°C N/A N/A 29.92 in
(1013 mb)
S 6.9 mph
(S 11 kph)
- 10SM
05:55
Clear
64°F / 18°C N/A N/A 29.92 in
(1013 mb)
SSE 8.1 mph
(SSE 13 kph)
- 10SM
05:35
Clear
64°F / 18°C N/A N/A 29.92 in
(1013 mb)
SSE 4.6 mph
(SSE 7 kph)
- 10SM
05:15
Partly Cloudy
64°F / 18°C N/A N/A 29.92 in
(1013 mb)
SSE 3.5 mph
(SSE 6 kph)
- 10SM
04:55
Clear
64°F / 18°C N/A N/A 29.89 in
(1012 mb)
SE 3.5 mph
(SE 6 kph)
- 10SM
04:35
Clear
63°F / 17°C 63°F / 17°C 100% 29.89 in
(1012 mb)
SE 3.5 mph
(SE 6 kph)
- 10SM
04:15
Clear
61°F / 16°C 61°F / 16°C 100% 29.89 in
(1012 mb)
SE 5.8 mph
(SE 9 kph)
- 10SM
03:55
Clear
63°F / 17°C 63°F / 17°C 100% 29.89 in
(1012 mb)
Calm - 10SM
03:35
Clear
63°F / 17°C 63°F / 17°C 100% 29.92 in
(1013 mb)
Calm - 10SM
03:15
Clear
63°F / 17°C 63°F / 17°C 100% 29.92 in
(1013 mb)
Calm - 10SM
02:55
Clear
64°F / 18°C 64°F / 18°C 100% 29.92 in
(1013 mb)
Calm - 10SM
02:35
Clear
64°F / 18°C 64°F / 18°C 100% 29.92 in
(1013 mb)
Calm - 10SM
02:15
Clear
64°F / 18°C 64°F / 18°C 100% 29.92 in
(1013 mb)
Calm - 10SM
01:55
Clear
66°F / 19°C 64°F / 18°C 94% 29.92 in
(1013 mb)
Calm - 10SM
01:35
Clear
64°F / 18°C 64°F / 18°C 100% 29.92 in
(1013 mb)
Calm - 10SM
01:15
Clear
64°F / 18°C 64°F / 18°C 100% 29.92 in
(1013 mb)
SE 3.5 mph
(SE 6 kph)
- 10SM
00:35
Clear
64°F / 18°C 64°F / 18°C 100% 29.92 in
(1013 mb)
Calm - 10SM
00:15
Clear
64°F / 18°C 63°F / 17°C 94% 29.92 in
(1013 mb)
Calm - 10SM
Time Weather Temperature Dewpoint Humidity Pressure Winds Precip Visibility


Weather for websites

WeatherForYou.com, LLC is not responsible for any damages or problems caused by this service. Current weather conditions are obtained from the closest station including government and personal stations which may have varying degrees of accuracy. Weather forecasts are derived from the NOAA NDFD. Like all things, this site belongs to Jesus Christ... He just trusts me to maintain it. If you have any questions or comments email webmaster@weatherforyou.com

Copyright © 2014, WeatherForYou.com LLC. All rights reserved.